EB1HRW Weather Reports


Display with metric or nautical units.
time (UTC)temp
F
wind
direction
speed
MPH
gust
MPH
rain 1hr
in
rain 24hr
in
rain mn
in
humidity
%
barometer
mb
20260503052230 49 251 0.0 0.0 0.00 0.00 0.00 76 1012.6
20260503050731 50 269 0.0 0.0 0.00 0.00 0.00 76 1012.6
20260503045229 50 269 0.0 0.0 0.00 0.00 0.00 77 1012.6
20260503043730 50 269 0.0 0.0 0.00 0.00 0.00 78 1012.7
20260503042230 50 269 0.0 0.0 0.00 0.00 0.00 78 1012.7
20260503040731 50 269 0.0 0.0 0.00 0.00 0.00 77 1012.8
20260503035230 49 269 0.0 0.0 0.00 0.00 0.00 78 1012.9
20260503033730 50 268 0.0 0.0 0.00 0.00 0.00 78 1012.8
20260503032231 50 268 0.0 0.0 0.00 0.00 0.00 78 1013.0
20260503030729 50 266 0.0 2.0 0.00 0.00 0.00 79 1012.7
20260503025230 50 248 2.0 0.0 0.00 0.00 0.00 79 1012.9
20260503023730 50 248 0.0 0.0 0.00 0.00 0.00 79 1013.1
20260503022229 51 248 0.0 0.0 0.00 0.00 0.00 82 1013.2
20260503020730 51 248 0.0 0.0 0.00 0.00 0.00 82 1013.1
20260503015230 52 248 0.0 0.0 0.00 0.00 0.00 83 1013.0
20260503013731 52 248 0.0 0.0 0.00 0.00 0.00 83 1013.3
20260503012230 52 248 0.0 0.0 0.00 0.00 0.00 83 1013.2
20260503010730 52 248 0.0 0.0 0.00 0.00 0.00 83 1013.4
20260503005229 52 248 0.0 0.0 0.00 0.00 0.00 83 1013.5
20260503003730 52 248 0.0 0.0 0.00 0.00 0.00 83 1013.6
20260503002230 52 248 0.0 0.0 0.00 0.00 0.00 84 1013.7
20260502235229 53 248 0.0 0.0 0.00 0.00 0.00 84 1013.9
20260502232231 55 248 0.0 0.0 0.00 0.00 0.00 84 1013.9
20260502230731 54 248 0.0 0.0 0.00 0.00 0.00 84 1013.8
20260502225230 55 247 0.0 2.0 0.00 0.20 0.20 83 1013.8
20260502222231 55 248 0.0 0.0 0.00 0.20 0.20 83 1013.9
20260502215230 56 247 0.0 1.0 0.00 0.20 0.20 82 1013.9
20260502213731 57 248 0.0 0.0 0.00 0.20 0.20 81 1013.8
20260502212232 57 248 0.0 0.0 0.00 0.20 0.20 79 1013.8
20260502210845 58 248 0.0 0.0 0.00 0.20 0.20 79 1013.7
20260502203844 58 247 0.0 0.0 0.00 0.20 0.20 77 1013.4
20260502200843 59 248 0.0 0.0 0.00 0.20 0.20 75 1013.0
20260502195344 59 248 0.0 4.0 0.00 0.20 0.20 75 1012.8
20260502193845 59 221 2.0 6.0 0.00 0.20 0.20 75 1012.8
20260502192343 60 265 2.0 7.0 0.00 0.20 0.20 73 1012.8
20260502190844 61 278 4.0 6.0 0.00 0.20 0.20 73 1012.7
20260502185345 61 263 5.0 7.0 0.00 0.20 0.20 73 1012.6
20260502183845 61 288 4.0 8.0 0.00 0.20 0.20 73 1012.4
20260502180845 62 290 2.0 5.0 0.00 0.20 0.20 76 1012.1
20260502163106 65 246 13.0 20.0 0.00 0.20 0.20 67 1012.0
20260502160106 67 250 13.0 22.0 0.00 0.20 0.20 60 1011.6
20260502151605 65 274 13.0 21.0 0.00 0.20 0.20 73 1012.1
20260502123100 56 254 0.0 12.0 0.09 0.20 0.20 75 1014.3
20260502121600 55 240 1.0 12.0 0.09 0.20 0.20 76 1014.5
20260502114559 55 263 11.0 16.0 0.00 0.11 0.11 76 1014.6
20260502113058 55 250 10.0 11.0 0.00 0.11 0.11 76 1014.3
20260502111559 56 231 3.0 12.0 0.00 0.11 0.11 75 1014.2
20260502110059 56 250 7.0 12.0 0.01 0.11 0.11 75 1014.5
20260502104559 57 250 6.0 7.0 0.01 0.11 0.11 74 1014.9
20260502103100 58 274 3.0 7.0 0.10 0.11 0.11 75 1015.1
20260502101600 56 246 2.0 16.0 0.11 0.11 0.11 75 1015.5
20260502070100 54 60 2.0 3.0 0.00 0.00 0.00 77 1015.1
20260502064600 54 54 3.0 2.0 0.00 0.00 0.00 77 1015.2